RH
24 25 25 26 26 26 25 24 23 22 21 19 17 16 16 15 15 14 13 13 12 12 11 11 11 10 11 11 12 12 11 11 11 11 11 11 11 11 11 10 10 11 11 11 12 11 9 9 7 7 7 8 9 10 16 19 21 23 27 27 25 31 34 32 34 47 61 58 56 50 49 63 60 59 64 54 47 43 38 32 26 27 27 28 30 26 25 27
25 26 26 26 26 26 25 24 23 22 21 19 18 16 16 15 14 14 13 13 12 12 11 11 11 11 11 10 11 12 11 11 11 11 11 11 11 11 10 11 10 10 10 10 11 11 12 11 10 10 8 8 8 7 10 11 15 17 22 26 26 30 29 28 36 51 62 61 68 64 55 60 57 63 76 66 59 54 42 33 29 28 28 27 28 25 22 25
26 26 26 26 26 26 25 24 23 22 21 19 18 17 16 15 14 13 13 12 12 11 11 11 11 10 11 11 10 11 11 11 11 12 11 11 11 11 11 11 11 11 10 11 10 10 11 11 11 12 11 11 10 10 9 8 10 10 14 18 19 22 22 24 30 37 49 66 76 65 67 88 80 75 78 67 58 50 44 39 31 28 29 25 24 21 18 23
26 26 25 25 25 25 24 23 23 21 20 19 18 17 15 15 13 13 12 12 12 11 11 11 11 10 10 11 11 11 10 11 12 12 12 11 11 11 11 10 11 11 10 11 10 11 10 10 10 10 11 12 12 12 13 12 11 13 15 13 13 15 14 17 18 24 50 81 91 79 85 101 94 83 69 58 50 34 34 38 38 45 43 33 26 22 24 26
23 24 23 24 23 23 22 21 21 19 19 18 17 16 14 14 13 12 12 11 11 11 11 11 10 10 10 10 11 11 10 10 11 12 12 11 12 11 11 11 11 11 11 11 10 11 10 11 11 10 10 10 12 12 12 15 16 19 20 17 18 15 12 18 23 29 50 74 90 94 91 85 72 58 46 49 47 25 26 42 59 68 51 33 23 22 29 26
20 21 21 21 20 20 20 19 18 17 17 16 15 14 13 12 12 11 11 11 11 11 11 11 11 10 10 10 10 11 11 11 10 11 12 12 12 12 12 11 11 11 11 11 11 11 11 11 11 11 11 10 11 11 11 15 19 21 21 22 22 24 29 33 41 50 68 90 99 89 74 67 60 52 50 51 42 28 34 47 53 50 36 28 23 28 34 30
20 19 19 18 18 17 17 16 16 15 15 14 13 12 12 11 11 11 11 11 11 11 11 10 11 10 10 10 10 10 10 11 11 11 11 11 13 12 13 11 11 11 11 12 11 11 11 11 11 11 12 11 11 11 11 14 17 19 20 25 26 30 35 44 67 82 98 105 84 60 47 45 50 53 48 36 33 31 28 32 31 25 25 24 24 35 41 40
19 18 17 16 15 15 15 15 14 14 13 13 12 11 11 11 11 11 11 11 11 11 11 10 11 10 10 10 10 10 10 10 11 12 11 11 12 12 13 12 12 11 11 12 11 12 11 11 11 11 11 11 12 11 11 11 12 14 14 22 31 33 35 55 83 95 108 97 54 42 37 25 32 34 26 30 46 36 22 35 38 28 25 18 23 37 43 45
18 17 16 15 14 14 14 14 13 13 12 12 12 11 11 11 11 12 12 12 12 11 11 11 10 10 10 10 10 10 10 10 10 12 11 11 11 12 13 13 13 12 12 12 12 12 12 11 11 11 11 12 13 12 11 11 10 13 11 13 23 33 44 62 77 87 98 70 29 33 32 18 23 18 14 32 47 35 37 64 50 22 20 18 21 31 39 43
16 15 14 14 13 14 13 13 13 12 12 11 12 12 12 13 12 13 13 12 12 12 12 11 11 10 10 10 10 10 10 10 10 12 12 12 11 11 13 13 14 13 12 13 12 13 12 12 12 11 12 12 12 11 10 11 10 13 12 11 12 17 28 38 49 62 59 31 14 22 19 12 15 12 14 22 27 24 39 72 59 20 13 13 14 27 37 40
15 14 14 14 14 14 13 13 13 12 13 12 13 13 14 14 14 14 14 13 13 13 13 12 12 11 12 12 10 10 11 11 10 11 13 13 12 12 12 13 14 14 13 13 13 13 13 12 12 12 13 11 11 11 10 11 10 12 12 13 13 11 12 12 19 26 20 13 13 15 13 14 14 11 14 13 15 19 25 55 62 25 9 13 16 26 34 40
15 15 15 15 14 14 14 14 14 14 14 15 15 15 15 16 15 16 15 16 15 14 14 14 15 14 14 14 11 12 12 11 10 11 13 13 13 13 13 12 13 14 14 14 13 13 13 13 13 13 12 11 11 11 11 11 11 11 11 12 14 13 12 10 11 12 11 13 14 15 17 15 13 11 13 11 12 18 20 40 57 31 14 19 21 30 43 50
15 15 15 15 15 15 15 15 15 16 17 17 18 17 17 17 17 18 17 18 18 17 17 16 17 16 18 16 13 16 15 12 11 12 13 13 14 14 14 13 13 14 14 14 14 14 14 13 14 13 12 12 11 11 11 11 11 10 11 12 15 15 13 13 13 13 13 13 12 15 16 13 14 12 12 13 11 17 22 31 44 32 15 17 25 41 56 55
17 17 18 18 18 18 18 19 18 19 19 19 20 20 20 20 20 20 20 20 20 20 19 18 18 18 19 17 15 19 18 14 13 13 13 14 15 15 15 15 14 14 14 15 14 14 15 14 14 14 13 13 11 11 11 11 11 11 11 11 15 15 13 15 15 15 14 14 14 13 13 13 12 12 12 13 13 19 22 19 26 32 24 26 45 59 60 58
23 23 23 23 23 23 23 23 22 22 22 22 22 22 22 22 22 22 21 21 20 21 20 20 19 19 20 18 17 20 20 18 16 14 15 16 16 15 15 15 15 15 15 15 15 15 15 14 14 14 14 13 12 12 12 11 11 11 11 11 13 13 13 16 17 17 16 16 17 14 13 13 11 13 13 11 12 13 14 19 33 49 46 47 71 85 75 67
26 26 26 26 26 26 26 25 25 25 24 24 24 24 23 22 22 22 22 21 21 21 20 20 20 20 20 19 18 19 19 20 19 17 17 17 16 16 16 16 16 16 16 15 15 15 15 15 14 14 14 13 13 13 12 11 11 11 11 11 12 12 12 16 18 16 17 18 18 16 15 15 15 15 12 14 18 15 16 25 32 36 46 60 74 82 75 64
33 32 30 30 30 29 29 28 27 26 26 25 24 24 24 23 22 22 22 22 22 21 21 21 20 20 21 20 18 18 19 20 20 19 18 17 17 17 16 17 16 16 16 16 16 15 15 15 14 14 14 14 13 13 13 12 12 12 12 11 10 11 11 15 17 14 15 18 17 18 17 16 18 17 16 19 21 21 17 19 22 26 49 69 67 62 55 47
37 37 36 36 37 37 37 36 35 33 32 30 29 28 28 26 23 23 24 22 22 21 21 20 20 20 20 20 19 18 19 20 20 20 19 17 17 17 17 17 16 16 16 16 16 15 15 15 14 14 14 15 14 14 15 13 11 12 11 10 10 10 11 15 16 13 14 17 16 17 17 17 19 18 19 17 22 34 27 24 33 43 64 77 72 65 48 38
35 35 35 36 36 37 38 39 39 39 39 38 36 35 35 34 30 29 29 27 25 24 22 21 23 23 21 23 23 19 18 21 23 22 20 19 17 17 18 17 17 17 16 17 17 16 15 14 14 15 16 16 15 15 14 12 11 12 11 11 10 11 12 14 15 13 14 16 16 18 17 18 18 19 22 17 29 50 42 31 31 37 61 77 74 65 45 37
31 31 31 32 32 33 34 34 36 36 37 38 37 36 36 36 35 34 34 33 31 29 28 27 30 29 26 29 28 23 24 25 25 25 23 22 20 19 19 19 19 19 19 19 18 16 15 15 16 18 18 16 15 14 14 12 11 12 13 12 12 13 13 15 16 15 16 17 16 17 17 19 18 19 22 19 34 54 44 31 27 27 43 61 61 51 42 41
28 27 27 28 28 28 29 30 30 31 32 33 33 33 32 33 33 32 33 33 32 32 31 31 34 35 33 35 34 31 31 29 27 27 27 25 24 23 22 21 21 22 22 20 18 16 17 19 22 21 18 16 16 15 15 14 14 15 16 15 15 15 15 16 17 15 17 17 15 15 15 18 18 19 21 21 33 46 36 25 24 22 26 47 59 49 49 58
28 28 27 27 26 26 26 26 26 27 27 28 29 29 28 29 29 28 28 29 29 29 29 30 31 34 35 34 35 36 35 33 31 30 30 28 27 28 27 25 25 25 24 20 19 19 22 26 25 20 17 17 17 18 19 18 17 17 18 17 16 16 17 17 17 16 17 16 15 15 16 16 16 17 20 22 27 31 28 22 19 18 16 38 61 54 50 59
27 27 27 26 26 25 26 26 25 25 26 26 25 25 26 25 25 25 25 26 27 26 25 27 27 28 31 31 31 34 35 34 32 31 30 28 28 28 27 27 26 27 25 22 23 24 27 29 24 19 18 19 20 21 22 22 21 21 20 20 19 18 17 17 18 17 16 16 15 15 15 15 14 16 19 23 26 25 26 25 22 20 13 24 48 50 45 49
25 25 25 25 24 23 24 24 24 23 24 25 25 24 24 24 24 23 23 23 27 31 26 24 26 27 30 31 28 28 30 31 30 29 28 27 27 25 25 26 26 26 26 24 25 26 29 27 22 20 20 21 22 23 24 24 24 24 23 23 22 19 18 18 19 18 17 16 15 15 14 14 14 15 17 21 24 25 28 28 24 23 18 19 28 29 40 55
20 21 21 22 22 21 22 22 22 21 21 22 23 23 23 23 23 22 23 22 26 40 38 26 26 29 31 29 27 28 30 30 29 27 27 28 27 25 24 25 25 25 25 25 24 26 28 26 23 23 22 22 23 23 24 25 25 25 24 25 23 20 19 19 19 19 19 17 16 16 15 15 15 15 16 17 20 24 29 29 27 27 24 24 21 15 28 52
17 17 17 18 18 17 18 18 19 19 19 19 19 20 21 21 22 20 22 22 23 38 44 34 28 30 32 30 28 31 31 29 30 28 27 28 29 27 25 24 26 26 26 25 23 23 25 24 23 24 23 23 23 23 25 25 25 25 25 25 23 20 20 20 20 20 21 20 18 17 16 17 16 15 15 15 17 22 27 29 29 29 26 23 19 14 19 38
17 17 16 16 16 16 16 15 16 15 16 16 15 17 18 18 20 18 18 21 21 27 35 35 32 30 32 32 29 30 32 34 35 30 28 31 33 31 27 26 27 28 28 27 24 25 28 26 25 26 25 24 24 26 28 27 26 25 25 24 21 20 20 20 21 22 22 22 20 18 18 18 16 15 17 17 16 18 23 28 29 29 27 23 19 19 24 33
16 16 16 16 16 16 16 15 15 14 13 13 13 13 14 14 15 16 17 19 20 21 24 29 31 29 29 29 28 29 32 35 37 34 30 33 36 33 29 28 29 31 30 28 27 30 32 28 25 26 25 25 26 28 29 27 25 25 24 23 21 20 21 21 22 22 22 21 21 20 19 19 17 16 16 17 16 16 20 26 29 30 28 24 22 23 27 29
16 16 15 15 14 14 14 14 14 14 13 12 12 12 12 12 12 13 14 15 18 20 21 25 27 26 25 25 26 28 28 28 32 34 29 28 33 32 29 30 32 33 31 28 28 31 31 28 26 26 26 26 28 29 28 26 25 26 24 23 22 21 21 22 22 22 22 20 20 19 19 18 17 16 15 15 15 15 18 23 27 31 28 26 25 22 23 24
18 17 15 14 13 12 12 12 12 12 12 11 11 11 11 11 11 12 12 12 15 16 17 20 23 23 22 21 21 22 24 24 27 31 26 24 30 33 31 31 32 32 31 28 26 29 30 29 27 26 29 30 30 30 27 26 27 26 25 24 23 23 22 23 22 21 20 19 19 17 17 17 16 16 15 14 15 14 16 19 24 28 29 29 27 25 24 23
21 19 18 16 14 13 11 11 10 10 10 10 10 10 10 11 11 12 12 12 14 14 13 14 17 19 20 19 18 19 20 22 23 25 23 21 26 30 28 28 29 30 31 29 27 30 32 30 28 28 33 35 34 32 29 28 28 26 25 24 23 23 23 22 21 19 18 18 17 16 16 16 15 15 14 14 15 14 15 16 20 28 32 30 26 25 27 31
22 20 19 18 16 15 13 12 11 10 10 9 9 9 10 11 11 12 13 13 13 14 12 12 12 13 15 18 20 21 22 24 25 24 22 21 24 27 26 25 28 28 30 31 31 35 36 33 32 32 34 36 34 32 30 28 28 26 24 23 22 23 22 21 20 19 18 17 17 16 15 15 14 14 14 13 14 13 15 14 16 26 31 30 26 25 28 32
20 19 18 17 16 15 14 13 12 11 11 10 9 10 10 11 11 12 13 14 13 12 11 11 11 12 13 15 19 22 23 26 29 29 27 26 26 28 27 25 26 27 28 31 32 35 36 35 34 32 33 34 32 31 29 28 28 26 25 23 22 22 20 20 19 18 18 17 16 16 15 14 14 14 13 12 13 13 13 14 14 20 28 33 28 24 32 38
18 18 17 16 15 15 14 13 12 11 11 10 10 10 11 12 13 13 14 13 12 10 10 10 10 12 12 14 17 20 21 23 26 27 28 29 29 30 30 26 25 25 26 28 27 28 30 29 29 30 31 33 32 30 29 29 28 25 24 23 22 21 20 19 18 18 18 16 15 15 14 14 13 13 13 11 12 12 12 13 13 16 23 32 31 24 36 52
15 15 14 14 13 13 12 11 11 10 9 9 9 9 10 12 13 14 14 12 11 10 9 9 9 11 12 14 16 18 20 21 22 23 24 25 26 28 30 29 29 30 32 31 28 27 28 26 26 29 29 31 31 30 29 29 28 26 24 22 22 21 19 18 18 17 17 16 15 14 14 14 12 12 12 11 12 11 12 13 12 15 17 26 35 29 32 48
13 12 12 11 10 10 10 9 8 8 8 7 7 7 9 10 10 12 12 12 12 11 10 10 10 11 11 13 16 17 19 19 20 21 21 23 23 24 26 28 29 31 34 35 34 34 34 32 30 29 27 27 28 28 28 27 27 26 24 23 23 22 19 17 17 17 17 15 15 14 13 13 12 13 12 11 12 10 12 13 11 14 14 20 38 36 29 37
10 10 9 8 8 7 7 7 6 6 6 6 6 6 7 7 8 9 10 11 12 13 14 14 13 11 10 11 14 15 16 16 17 18 18 20 22 23 24 25 26 27 30 34 36 38 39 39 36 33 30 28 28 28 27 25 26 25 24 24 24 20 16 16 17 17 17 16 15 15 14 14 12 12 12 11 11 10 11 13 12 13 12 17 35 41 32 32
8 7 7 6 6 5 5 4 4 4 4 3 4 4 4 5 5 6 7 8 10 11 14 17 16 13 10 10 12 13 15 15 15 16 16 17 19 21 23 23 24 25 26 31 34 35 37 39 37 34 32 30 30 29 25 23 23 21 22 23 21 17 15 16 18 18 18 18 17 16 15 14 13 12 12 11 10 10 11 13 12 12 13 16 30 44 37 31
6 6 6 5 5 4 4 4 3 3 3 3 3 3 3 3 3 4 5 6 7 9 11 14 16 14 13 13 12 13 16 16 16 15 15 16 17 19 21 22 24 23 23 25 27 29 33 36 36 33 33 32 30 28 24 22 23 21 21 21 18 16 16 17 19 19 20 19 16 16 15 14 13 12 12 11 10 10 10 13 12 12 14 18 30 45 41 35
5 5 5 5 4 4 4 3 3 3 3 3 2 2 3 2 2 3 3 4 5 7 8 10 13 13 14 15 15 15 16 17 17 16 16 17 16 16 18 19 21 20 20 20 21 22 25 29 32 31 32 31 27 25 23 23 23 21 21 22 19 18 18 18 19 21 22 19 17 17 17 15 14 13 12 10 10 10 9 12 12 12 14 16 29 43 40 38
4 4 4 3 3 3 3 3 3 2 2 2 2 2 2 2 2 2 2 3 3 4 6 8 11 11 11 13 14 15 16 18 19 18 18 17 16 15 15 15 16 16 17 20 23 24 23 24 28 31 32 30 26 26 26 24 24 22 22 22 20 21 20 19 22 25 26 24 22 22 21 19 15 14 14 13 13 12 11 12 12 12 15 14 22 37 37 38
3 3 3 3 3 3 3 2 2 2 2 2 2 2 2 2 2 2 2 3 3 3 4 5 8 10 11 11 12 14 15 16 19 21 20 17 14 14 14 14 14 14 15 18 21 25 25 27 33 34 32 30 29 30 29 25 23 22 21 20 19 21 20 19 24 32 35 34 31 27 25 21 18 20 19 15 14 13 11 13 13 12 15 14 19 30 35 39
4 3 3 4 3 3 3 3 3 2 2 2 2 2 2 2 2 2 2 2 2 3 3 4 6 8 9 11 12 13 14 14 17 21 21 18 15 13 13 14 15 15 16 16 17 20 21 24 32 35 33 31 30 32 30 26 23 21 20 19 18 19 18 18 26 34 41 42 36 32 27 19 23 30 23 14 15 14 12 13 14 14 13 14 18 24 31 39
5 5 4 4 4 4 3 3 3 3 2 2 2 2 2 2 2 2 2 2 2 3 3 3 4 6 8 9 11 13 14 14 16 18 19 19 17 15 13 13 15 15 16 16 16 18 18 18 23 30 32 31 30 30 29 26 23 21 20 18 17 19 17 19 26 32 39 40 33 31 24 15 26 36 25 18 17 13 14 15 14 15 13 11 16 19 25 34
6 6 6 5 4 4 4 3 3 3 3 3 2 2 2 2 2 2 2 2 2 2 2 3 4 4 6 7 10 12 13 14 15 16 16 17 17 16 13 13 15 14 14 16 18 18 18 16 17 22 26 26 26 29 29 27 24 22 21 19 17 19 18 20 26 31 37 38 32 31 21 12 26 34 24 27 27 16 17 18 15 16 13 10 13 15 20 27
7 6 6 6 5 4 4 4 3 3 3 3 3 2 2 2 2 2 2 2 2 2 2 2 3 4 4 6 8 10 11 13 15 15 15 16 16 14 13 13 15 14 14 17 20 20 20 19 18 20 23 22 24 30 30 28 26 23 22 20 18 19 19 22 28 30 35 40 41 39 23 12 24 28 22 36 43 31 24 20 16 17 15 12 13 14 18 24
9 8 7 6 6 5 4 4 4 3 3 3 3 3 2 2 2 2 2 2 2 2 2 2 3 3 4 4 6 9 11 12 14 14 14 16 15 13 12 13 14 16 17 18 20 21 21 20 21 24 26 24 24 30 31 26 24 23 21 21 20 18 20 25 29 30 34 40 48 49 31 16 22 26 25 37 46 40 33 25 19 19 16 13 13 13 17 20
11 9 7 6 5 5 4 4 3 3 3 3 3 2 3 2 2 2 2 2 2 2 2 2 2 3 3 4 5 7 10 11 13 14 14 15 15 14 13 13 13 15 18 18 19 20 20 21 23 27 33 34 31 32 33 28 25 24 22 21 21 19 19 25 31 32 33 39 50 55 42 24 21 25 28 34 40 39 36 29 23 21 18 15 14 15 16 16
10 9 8 6 5 4 4 4 3 3 3 3 3 2 2 2 2 2 2 2 2 2 2 2 2 2 3 4 4 5 8 10 11 13 13 14 14 15 15 13 12 15 18 18 17 18 20 21 23 28 34 38 37 35 33 30 29 28 23 21 22 20 18 22 30 33 34 38 48 55 50 36 29 27 27 31 36 35 31 28 27 25 21 17 16 16 15 16
10 8 7 6 5 4 4 4 3 3 3 3 3 3 3 2 2 2 2 2 2 2 2 2 2 2 2 3 4 5 6 7 9 12 13 13 13 15 16 14 13 14 17 18 17 18 20 22 25 29 32 34 36 36 34 33 33 31 25 21 22 21 19 20 26 32 33 35 44 53 54 48 39 30 24 26 32 29 25 30 32 29 26 22 20 19 16 17
11 9 7 6 5 4 4 4 4 4 4 3 3 3 3 2 2 2 2 2 2 2 2 2 2 2 2 2 3 4 5 6 7 10 12 11 12 15 17 16 15 15 16 18 18 18 22 24 24 26 29 32 34 34 33 34 34 31 27 23 22 21 21 20 22 30 35 34 39 47 52 51 45 38 29 25 27 27 28 36 38 33 30 27 23 21 16 17
13 10 7 5 4 4 4 4 4 4 3 3 3 3 3 2 2 2 2 2 2 2 2 2 2 2 2 2 3 3 4 5 5 8 10 10 11 14 17 18 18 16 15 17 19 20 23 24 23 22 24 29 34 36 36 34 34 32 28 25 24 22 25 28 27 31 37 36 37 42 49 53 50 43 34 25 25 33 38 40 39 35 32 29 26 23 19 17
Wind_Speed
35 35 35 35 35 36 36 36 36 36 35 35 33 31 29 28 28 27 26 25 24 23 22 20 19 18 17 15 14 13 12 11 10 9 9 8 7 7 7 8 9 10 10 11 13 15 19 22 26 29 31 34 37 39 41 42 43 43 43 44 44 42 42 43 41 40 39 39 41 42 43 44 43 42 40 41 41 38 39 43 44 45 44 44 44 45 44 44
37 38 38 38 38 38 38 38 38 38 37 37 35 34 32 31 30 30 28 27 26 25 25 24 22 21 20 19 18 16 15 14 12 11 11 11 10 9 9 8 8 9 10 11 11 12 14 16 19 22 26 29 32 35 38 40 42 43 44 45 46 44 44 43 42 40 38 38 40 41 42 44 44 43 42 42 40 37 40 44 45 46 45 44 44 45 44 43
40 41 41 41 41 41 41 40 40 40 39 39 38 36 35 34 33 32 31 30 28 28 27 27 25 24 23 22 21 20 19 17 15 14 14 14 12 12 11 11 10 9 10 10 11 12 12 13 14 16 19 22 25 28 32 35 38 40 42 44 45 45 45 44 43 42 37 34 38 41 40 40 41 42 42 40 38 36 38 40 42 44 43 43 43 43 42 40
44 44 44 44 44 43 43 43 42 42 41 41 40 39 37 36 36 35 34 32 31 30 29 29 28 27 26 25 24 24 23 21 19 17 17 16 15 15 14 14 13 12 12 11 11 11 12 12 13 14 15 16 18 20 23 27 31 34 37 40 42 42 44 44 44 44 37 30 34 39 39 37 36 36 36 33 32 35 35 35 35 36 36 36 36 36 35 35
47 47 47 47 46 46 45 45 44 44 43 42 42 41 40 39 38 37 37 35 34 32 31 31 31 30 28 28 27 27 26 25 23 21 20 19 18 17 17 17 16 15 14 13 12 12 12 12 13 13 14 15 16 16 17 19 22 26 29 33 35 37 39 40 40 40 35 30 31 35 36 34 32 33 33 29 30 33 33 30 26 28 31 32 32 31 31 32
50 50 50 49 49 48 48 47 46 46 45 44 43 43 42 41 40 40 39 38 36 35 33 33 33 32 31 30 29 29 29 28 27 25 24 23 21 20 20 20 19 17 17 16 15 14 14 13 13 13 14 14 15 16 16 16 17 18 20 23 27 30 33 34 33 32 29 28 27 29 30 30 29 30 29 27 28 28 27 27 27 28 30 29 28 27 28 29
52 52 52 52 51 50 49 49 48 47 46 46 45 44 44 43 42 42 41 40 39 37 36 35 35 34 33 33 32 31 31 31 29 29 28 26 24 23 23 22 21 20 19 18 18 17 17 17 16 15 15 15 15 16 16 16 17 16 16 17 21 24 28 29 28 26 23 23 23 24 25 25 25 25 25 25 24 23 23 25 27 28 26 24 24 24 23 24
53 53 53 53 53 52 51 50 49 49 48 48 47 46 46 45 44 43 43 42 40 39 38 37 37 36 35 35 34 33 33 33 31 31 31 29 28 26 25 25 25 23 22 21 21 20 20 20 19 17 17 16 16 17 17 17 17 17 17 16 18 21 25 27 26 23 20 19 19 19 19 20 21 21 22 21 19 19 17 17 21 21 20 19 21 21 21 22
55 54 54 54 54 53 52 52 51 51 50 50 49 49 48 47 46 45 44 43 41 40 39 39 38 38 37 37 37 35 35 35 33 33 34 32 31 30 28 28 27 26 25 24 23 23 23 22 20 19 19 18 20 20 20 19 18 18 18 18 18 19 22 23 23 23 21 19 17 17 17 16 16 16 16 15 13 12 9 11 16 16 15 17 18 20 20 22
56 56 56 56 55 54 54 53 53 53 53 52 52 51 50 49 47 46 45 44 43 41 40 40 40 39 39 39 39 37 37 37 35 35 36 35 34 33 32 30 30 29 28 27 26 26 26 24 22 22 22 23 24 23 22 21 19 19 19 19 19 20 21 21 21 22 22 20 18 17 17 15 14 13 12 12 11 10 8 9 14 15 15 17 17 19 20 21
57 57 57 57 57 57 56 56 56 55 55 55 54 53 51 50 48 47 46 45 44 43 41 41 41 41 40 41 41 39 38 39 37 36 37 37 36 35 35 33 32 32 31 30 29 28 28 26 25 25 26 27 26 25 23 22 21 21 21 20 21 21 21 22 22 22 22 21 19 18 17 16 14 13 12 12 12 12 10 10 14 16 16 16 16 18 19 20
59 59 59 59 59 59 59 58 58 57 57 56 56 54 52 51 50 48 47 46 46 44 43 43 42 43 42 43 43 40 41 42 39 37 38 39 39 38 37 36 35 34 34 33 32 31 30 29 28 29 30 28 27 26 25 24 24 24 24 23 22 22 23 23 22 22 22 21 20 19 18 17 16 15 14 14 14 13 11 11 14 15 15 15 16 17 18 19
61 61 61 61 61 61 61 61 60 59 58 57 57 56 54 53 52 50 49 48 48 47 46 45 44 44 44 46 44 41 44 45 41 40 40 41 40 40 40 38 37 37 36 35 35 33 33 32 31 32 31 30 29 28 27 27 26 26 26 25 24 24 24 23 22 23 22 21 21 20 19 19 17 16 15 15 15 13 12 12 14 15 15 15 16 17 17 19
62 62 63 63 63 63 62 62 61 61 60 59 58 57 57 55 54 53 52 51 50 50 49 47 47 46 47 49 45 43 47 47 44 42 41 42 42 42 42 41 40 39 39 38 37 36 36 35 34 34 33 33 32 30 30 29 27 28 28 27 27 27 26 24 24 24 23 22 22 21 20 19 19 18 17 16 15 14 13 14 14 13 13 13 13 16 17 17
64 64 64 64 64 64 64 64 64 63 62 61 61 60 60 59 58 57 56 55 54 53 52 51 50 49 50 51 48 46 49 50 48 44 43 43 44 44 44 43 42 42 41 40 40 39 38 38 37 36 36 35 34 33 34 32 29 30 30 29 29 29 27 25 26 27 25 24 24 23 21 19 19 18 18 17 16 15 14 14 12 10 11 11 11 14 16 17
67 67 67 67 67 67 67 67 67 66 66 65 64 64 64 62 61 60 60 59 58 58 56 55 55 53 53 54 52 50 49 52 52 47 46 47 47 47 46 45 45 44 44 43 42 42 41 40 39 39 38 37 36 37 37 34 32 32 32 32 31 31 29 27 29 29 27 26 26 25 22 20 19 19 18 17 17 16 14 12 12 11 11 11 12 15 18 18
70 70 70 70 70 70 70 70 70 70 69 69 68 68 68 67 66 64 64 63 62 62 60 59 58 57 57 57 56 53 51 54 54 51 50 50 49 49 48 48 48 47 46 45 44 44 43 43 42 41 40 39 39 39 38 38 36 35 35 35 32 32 31 31 32 31 29 28 28 27 25 22 20 20 19 17 17 16 13 12 13 13 11 11 13 16 18 16
73 73 73 73 73 73 73 73 73 73 73 72 72 71 71 71 69 68 67 67 66 65 64 62 61 61 60 60 59 57 55 56 56 55 54 53 51 50 50 50 50 49 48 47 47 47 46 45 44 43 42 41 41 40 41 42 39 37 37 36 34 33 32 33 34 33 31 30 29 28 26 24 22 21 20 18 17 16 13 13 13 13 11 12 14 16 16 13
77 77 77 77 77 77 77 77 76 76 76 75 75 74 74 74 73 71 70 71 70 68 68 65 64 65 63 63 64 61 58 58 58 58 57 56 54 52 53 53 52 51 50 50 50 49 48 47 46 45 44 44 43 43 45 45 40 38 38 37 34 33 34 35 35 34 32 31 31 29 27 26 25 23 21 20 17 16 15 14 14 14 13 12 14 16 15 12
81 81 81 81 81 81 81 81 80 80 79 79 79 78 77 77 77 74 73 75 74 72 71 68 68 69 67 66 67 64 62 62 61 60 60 58 57 55 55 55 54 53 52 52 52 51 50 48 47 48 48 46 46 46 47 45 41 40 40 38 36 36 36 36 36 35 33 33 33 31 29 28 27 25 23 21 18 18 18 16 15 16 14 13 14 15 13 11
83 83 84 84 84 84 85 85 85 84 84 83 83 83 82 81 81 79 76 77 77 76 75 73 71 71 71 70 70 68 67 65 64 62 62 60 59 58 57 57 56 55 56 56 54 52 50 49 50 51 49 48 47 47 47 46 43 42 41 40 40 38 38 38 38 38 36 37 37 35 32 31 30 28 26 24 22 21 21 18 17 17 15 13 14 15 13 11
82 83 83 84 84 84 85 86 86 87 87 86 86 86 86 85 85 83 80 79 80 80 78 76 74 73 76 75 72 71 70 68 67 65 65 63 61 60 60 59 58 58 60 58 55 53 51 52 54 53 51 49 48 47 47 47 45 44 44 43 42 42 42 41 41 41 40 41 40 37 35 34 33 31 28 26 25 23 22 19 17 17 15 14 15 15 12 11
84 85 86 86 86 85 85 86 87 87 87 87 87 87 88 88 87 87 84 80 81 84 81 79 78 76 78 79 76 74 73 73 71 68 67 66 65 65 64 63 62 62 62 58 56 55 55 57 57 54 52 50 49 49 48 48 46 46 46 45 45 45 45 43 43 44 43 44 43 40 40 39 36 34 30 29 28 25 23 21 18 17 16 15 15 14 12 11
87 87 88 89 89 88 88 89 89 88 88 88 88 88 88 88 87 87 85 81 79 83 85 82 80 79 79 82 81 76 75 76 74 70 68 68 70 70 67 66 66 64 62 60 59 58 59 61 58 54 53 51 51 50 49 49 49 49 49 48 49 48 47 46 46 47 46 46 45 44 43 42 40 37 33 31 30 27 25 22 20 18 17 17 15 13 12 12
90 90 91 91 92 91 91 91 92 92 91 91 90 90 90 89 89 87 85 83 77 80 87 84 80 80 81 84 83 77 76 77 76 74 71 70 72 72 70 68 68 66 64 64 64 62 63 62 58 56 55 53 52 52 51 52 51 51 51 51 52 51 49 49 48 49 49 47 46 46 44 43 43 40 36 35 33 29 27 24 21 19 18 18 17 14 13 13
94 94 94 95 95 95 95 94 95 95 94 94 93 93 93 92 92 90 87 85 80 80 87 87 83 82 83 84 81 79 78 76 77 77 72 71 73 74 72 68 67 66 65 67 67 64 64 63 59 58 57 56 54 53 53 53 53 52 52 54 54 52 51 51 50 50 50 48 48 48 45 45 45 42 40 38 35 32 30 27 24 22 19 19 18 16 13 13
94 96 96 97 98 98 99 99 99 99 98 98 97 95 95 94 94 93 91 88 86 85 87 89 88 85 85 84 82 81 78 75 78 79 74 71 73 74 73 69 67 67 67 69 67 62 63 63 60 58 59 57 54 53 54 54 53 52 54 55 54 53 52 52 51 51 50 50 51 49 46 46 46 43 41 40 38 36 33 29 27 25 23 21 19 17 15 15
94 96 97 98 99 99 101 102 102 103 103 102 101 99 98 97 95 95 94 91 91 91 90 91 92 90 88 86 84 82 79 78 79 80 77 74 74 75 74 71 69 68 70 69 64 62 65 65 62 60 60 57 55 55 56 55 53 54 56 55 54 53 52 52 51 51 51 51 51 50 48 48 47 44 44 43 42 39 35 33 31 28 26 23 20 19 18 17
94 96 97 99 100 101 102 102 103 104 104 103 103 102 100 100 98 97 96 94 94 97 95 94 95 95 92 88 86 84 83 81 80 82 82 77 76 77 75 73 72 71 71 68 64 66 68 67 64 63 60 57 56 57 57 55 54 55 56 54 53 52 52 52 51 51 52 50 50 50 50 51 49 47 47 46 45 43 39 37 35 31 28 25 22 21 20 20
94 96 98 99 100 101 101 102 103 103 104 103 102 101 99 99 99 99 99 96 99 103 100 97 97 96 95 92 89 87 86 84 83 84 84 79 76 77 76 75 75 73 72 70 66 67 68 67 65 62 58 57 57 57 56 54 55 56 54 52 52 51 51 51 50 52 51 47 48 51 52 53 50 48 50 50 48 47 44 41 37 32 30 28 25 22 22 22
97 98 99 100 101 101 101 101 101 101 101 101 101 99 97 98 97 98 99 99 104 109 106 101 97 93 93 94 91 89 88 88 87 87 85 82 79 79 78 77 75 73 72 69 65 66 68 67 63 59 57 58 57 56 55 53 54 54 52 51 51 50 51 52 51 51 47 45 49 52 55 55 50 50 55 53 50 49 46 43 38 34 33 31 28 24 24 24
99 101 102 102 103 102 102 102 101 100 99 97 97 95 95 96 96 97 100 102 108 111 108 102 95 91 92 93 92 91 89 90 90 88 87 85 83 81 80 77 76 75 71 68 67 68 68 65 62 60 58 58 57 55 54 53 53 53 52 51 51 51 52 52 50 48 46 49 53 56 58 54 50 55 59 55 53 52 49 44 40 37 35 33 30 26 25 25
99 102 103 103 104 103 103 102 101 99 97 95 93 91 91 92 94 97 100 106 111 108 101 95 91 90 93 93 94 95 92 91 91 91 89 88 86 84 83 81 80 78 74 74 75 73 71 69 67 63 59 58 57 55 53 54 55 55 53 52 52 53 52 50 49 48 49 52 55 57 56 51 50 56 57 53 53 54 51 47 43 39 36 34 32 29 26 25
98 100 102 103 103 103 103 102 100 98 95 93 90 88 88 90 93 97 103 110 111 102 95 91 87 88 90 93 97 99 97 95 95 94 92 90 88 86 85 83 81 79 79 80 79 76 74 72 68 62 59 59 58 55 55 57 58 57 55 54 54 53 51 50 50 50 51 53 55 55 52 49 51 54 54 53 52 52 52 49 45 42 38 36 34 31 29 26
95 97 99 100 101 101 102 101 99 97 95 92 88 85 86 88 92 98 104 106 101 92 90 89 87 87 88 91 97 99 101 101 100 100 97 94 91 88 86 84 82 81 82 81 78 76 75 71 67 66 65 63 61 59 59 60 59 57 57 55 53 53 51 50 50 51 52 53 52 50 49 51 52 51 51 51 48 48 50 50 47 44 41 37 35 34 33 30
91 92 94 94 95 96 96 96 95 95 93 91 88 86 86 88 91 95 97 94 89 86 86 86 88 89 88 91 96 100 104 107 107 105 102 97 93 90 89 88 86 85 83 81 77 76 75 71 70 71 69 66 64 63 62 61 60 59 57 54 53 54 53 49 49 51 51 50 47 47 49 51 50 48 49 49 47 45 47 50 50 47 43 39 36 37 37 33
87 87 87 88 89 89 90 90 89 89 88 88 86 85 86 88 90 92 91 88 86 86 87 89 91 90 88 91 96 102 105 107 109 108 104 99 96 93 92 91 90 88 85 82 80 79 76 73 73 73 70 67 66 66 66 63 61 60 57 54 56 56 51 46 47 49 47 45 45 46 49 49 47 47 48 49 48 44 44 49 50 47 45 41 39 39 40 37
81 80 81 81 81 82 82 82 82 81 81 81 80 81 82 85 88 90 88 85 85 86 88 93 96 92 88 89 93 98 101 103 105 104 101 99 98 97 96 95 94 92 89 87 85 82 78 76 76 74 71 69 69 70 68 63 61 59 56 57 58 53 47 45 46 46 44 45 46 46 47 47 45 47 49 49 48 44 44 48 49 46 45 43 42 42 42 40
74 73 73 73 73 74 74 74 74 74 73 73 72 73 75 78 82 85 85 83 84 86 88 93 96 94 92 93 92 95 99 102 103 101 99 100 102 103 102 100 99 97 94 91 88 83 80 79 77 74 73 73 72 71 66 59 59 58 56 58 56 49 46 46 46 45 45 46 46 46 47 47 46 48 49 48 47 45 45 47 47 45 46 46 46 45 45 42
68 67 66 65 66 67 67 67 68 67 67 67 65 65 67 70 73 77 79 79 82 86 87 90 93 94 96 97 96 96 98 100 101 100 99 101 103 104 104 103 103 100 94 89 86 83 81 80 77 75 76 75 70 65 60 57 58 57 56 56 54 49 47 46 44 44 45 45 45 46 46 47 46 45 45 45 44 44 46 46 46 46 48 50 49 48 47 44
63 62 61 60 59 60 61 62 62 63 62 62 61 60 61 63 65 67 70 73 78 83 87 90 93 95 96 97 98 99 98 97 99 100 100 103 104 103 103 103 102 97 93 90 86 84 83 80 77 77 78 73 65 61 61 60 59 59 58 57 55 52 51 48 44 42 42 43 44 45 46 46 43 40 40 42 42 44 45 46 47 49 51 52 52 50 49 46
58 57 57 57 56 55 56 57 57 58 58 57 57 57 57 59 60 60 62 66 71 78 84 90 94 96 97 97 97 98 97 96 98 100 102 106 107 103 99 98 96 93 93 93 90 88 86 83 81 81 79 73 66 65 66 65 63 64 62 60 58 56 54 50 45 42 42 44 45 46 48 46 40 38 41 43 42 44 45 46 48 51 54 54 53 53 51 49
57 55 53 53 53 51 51 52 53 53 53 53 53 53 54 55 56 56 56 59 64 71 79 86 92 96 99 99 98 99 98 96 98 101 105 107 107 101 95 92 90 90 92 93 91 92 92 89 86 83 79 75 72 72 71 69 68 66 63 60 58 56 55 53 50 47 45 46 48 48 49 44 37 38 41 41 41 43 44 46 48 52 55 56 55 55 53 51
53 53 51 49 48 47 47 47 48 49 49 49 49 48 49 51 53 54 53 54 58 65 74 81 89 95 99 99 100 101 100 98 100 103 105 107 105 100 93 89 88 88 89 90 90 92 93 91 87 83 80 79 78 75 73 71 67 62 61 59 57 58 58 56 53 50 48 50 50 51 51 44 38 40 39 37 40 43 42 44 48 52 56 56 56 56 54 53
49 48 49 48 46 45 44 44 44 45 45 46 46 45 45 46 49 51 51 51 55 60 68 76 84 93 98 100 101 102 102 101 103 104 104 106 104 98 92 89 88 88 86 86 89 92 92 89 85 83 83 82 78 74 72 70 65 62 62 61 59 60 60 58 55 51 50 51 51 53 53 43 40 43 39 33 37 40 41 44 47 50 52 54 55 55 55 54
48 46 46 46 46 45 43 42 42 42 42 42 42 43 42 42 44 47 48 49 52 57 63 71 79 88 95 98 101 103 103 104 106 105 103 104 102 95 90 88 88 88 85 85 89 91 90 88 85 84 84 84 80 77 76 76 71 67 65 65 63 63 61 60 57 53 52 52 52 56 55 45 43 45 38 32 34 36 40 44 45 47 49 51 53 55 57 57
48 48 46 45 45 44 43 42 41 40 39 39 39 40 40 39 41 44 46 47 50 54 59 66 74 83 90 95 100 104 105 107 108 105 103 103 99 92 89 89 89 87 85 86 89 90 90 88 86 84 84 85 83 80 80 79 75 70 68 67 66 65 63 61 59 55 55 55 55 57 56 50 47 44 37 35 35 34 36 40 41 43 46 48 52 55 58 59
46 47 46 45 44 42 41 40 40 38 38 37 36 36 37 37 38 41 43 45 48 51 56 63 70 78 85 91 97 103 107 109 108 106 104 102 96 89 88 90 88 86 87 89 90 90 90 89 87 85 86 87 85 81 80 78 75 72 70 68 68 68 65 62 61 60 57 57 58 60 59 54 51 46 42 41 39 37 37 38 38 40 43 47 52 56 57 58
46 45 45 45 43 41 39 38 38 35 35 35 33 33 34 33 34 37 40 42 45 48 53 59 66 73 81 86 92 100 107 109 108 107 106 101 94 89 90 90 88 87 89 92 91 89 88 86 86 87 89 90 87 83 80 78 75 74 74 72 70 68 66 64 65 64 60 59 61 62 60 56 54 52 49 45 43 42 40 36 36 38 41 46 50 53 54 55
47 46 44 44 43 39 36 37 35 32 32 32 30 31 33 31 30 33 37 39 42 46 50 56 62 69 76 82 88 96 103 106 106 106 107 101 93 91 91 91 89 88 90 93 92 88 85 86 88 90 91 91 88 84 82 81 79 77 75 72 69 68 68 67 68 67 64 63 63 64 63 60 58 56 52 47 45 43 39 36 37 38 39 43 47 50 52 53
47 46 44 42 41 38 35 35 33 29 29 29 27 27 30 30 28 30 33 36 39 43 47 53 59 66 72 78 84 92 99 103 103 105 106 101 93 92 92 92 91 90 90 92 91 87 86 88 91 93 92 90 87 84 83 84 82 78 75 72 70 68 69 69 68 67 65 65 66 67 65 62 60 58 55 51 47 44 41 40 41 40 39 41 44 47 49 50
47 46 44 42 40 36 33 33 31 27 26 26 24 24 27 28 26 27 30 33 37 40 44 50 56 63 69 75 80 87 93 98 100 103 105 101 94 92 94 94 93 92 90 91 89 87 88 90 91 91 90 89 88 86 85 85 83 79 77 75 72 70 70 71 71 69 68 67 67 68 66 64 64 61 58 54 49 46 45 44 43 42 40 39 41 43 46 49
Wind_Direction
252 254 255 256 256 257 258 259 260 262 263 264 264 264 264 265 265 264 262 260 258 256 254 249 244 240 236 231 226 221 213 205 199 192 186 182 181 176 170 165 161 162 167 178 189 199 208 212 215 218 220 222 224 225 227 228 229 230 230 233 234 235 240 244 248 251 255 259 260 261 262 265 268 268 267 267 269 269 269 271 273 275 276 278 280 282 285 286
252 253 254 255 256 257 258 259 261 262 264 265 266 266 265 265 265 264 262 259 258 256 255 251 247 243 240 236 231 227 223 217 209 207 204 195 193 194 190 187 180 174 171 171 175 181 190 200 208 213 217 221 224 226 228 229 230 231 232 234 235 237 239 242 247 251 256 261 263 264 266 267 268 269 270 270 269 268 270 272 273 275 276 277 279 281 283 284
252 253 254 255 256 257 258 260 261 263 264 265 266 267 267 266 265 264 262 260 258 256 255 253 249 245 242 240 236 232 228 224 217 215 216 205 202 206 201 199 197 193 189 184 181 180 181 185 192 201 207 214 219 224 227 230 231 232 234 235 237 239 240 242 245 250 255 261 263 264 267 270 269 268 271 270 268 267 270 273 275 277 277 277 278 281 281 282
252 253 254 255 256 257 259 260 261 263 264 266 266 266 266 266 266 264 263 260 258 256 254 253 251 248 244 241 240 237 232 228 223 220 222 216 209 213 211 208 205 204 204 201 197 193 191 190 189 192 197 201 207 214 221 226 229 232 233 236 237 239 241 242 244 246 248 252 260 262 264 270 271 269 270 269 266 267 270 274 277 277 276 276 276 279 280 280
253 254 255 256 256 258 259 260 261 262 264 265 265 266 266 265 265 265 264 262 259 256 254 253 252 250 247 243 241 240 236 232 228 224 226 224 218 218 219 216 211 209 210 209 210 210 207 205 202 199 199 200 201 204 209 215 220 226 230 233 235 236 238 239 242 245 246 250 258 262 263 268 271 270 270 268 268 269 270 272 271 270 272 275 276 276 277 278
255 256 256 257 258 258 259 260 261 262 262 263 264 264 265 265 264 264 264 262 260 257 254 252 251 250 248 246 243 242 240 236 232 228 227 228 225 224 224 224 218 215 216 216 214 216 218 218 218 215 211 210 208 206 207 210 212 218 223 227 229 231 234 236 241 245 247 251 255 261 263 265 269 270 268 267 270 269 265 265 263 264 270 274 274 273 276 278
257 257 258 258 259 259 260 260 261 261 262 262 262 263 263 264 263 263 263 262 260 258 255 252 250 249 248 247 244 243 242 240 237 233 230 228 229 228 228 229 226 221 220 222 221 220 221 223 223 224 224 223 221 218 213 212 212 215 217 219 221 224 227 230 233 235 241 251 255 259 262 262 264 264 264 265 268 266 261 261 262 265 268 269 269 271 276 276
258 258 259 259 259 260 260 260 260 261 261 261 261 262 262 263 262 262 261 260 259 257 255 252 250 248 248 247 245 243 243 242 240 239 235 229 229 230 231 233 232 229 224 225 227 225 224 225 225 226 229 231 233 232 226 220 216 217 217 215 216 219 221 223 227 231 240 252 254 255 257 257 257 256 258 260 263 266 264 260 259 261 263 263 263 266 268 270
259 259 260 260 260 260 260 260 260 260 260 261 261 262 262 262 261 261 260 258 257 255 254 252 250 248 247 246 245 243 243 242 240 241 241 235 231 230 232 235 235 234 231 228 230 231 230 228 227 229 231 233 236 236 234 230 224 221 221 217 216 217 219 221 227 236 243 248 250 250 251 249 251 254 255 254 257 262 255 248 255 259 261 261 262 265 266 268
259 260 260 260 260 260 260 260 260 260 261 261 261 261 261 261 260 259 258 257 255 253 251 250 249 248 247 246 246 243 242 242 240 240 243 241 237 232 232 235 237 238 236 233 232 234 236 233 232 231 232 232 233 234 235 236 233 230 228 224 221 220 220 222 228 236 242 245 247 248 249 249 251 255 255 253 252 253 243 238 254 265 268 268 270 270 268 270
260 260 260 260 260 260 260 260 261 261 262 262 262 261 261 260 259 257 256 255 253 251 249 248 248 248 247 247 246 244 243 242 239 238 241 243 242 238 235 234 236 239 239 238 236 236 237 238 237 236 234 233 234 235 236 239 240 238 236 231 229 227 226 227 229 235 240 243 246 249 251 252 253 255 256 256 254 253 250 240 251 267 274 274 274 272 269 271
260 260 260 260 261 261 261 261 261 261 262 262 262 261 260 259 258 256 255 253 252 250 248 246 246 246 246 246 246 245 245 243 240 238 239 242 243 242 240 237 236 238 240 240 240 239 239 238 238 240 240 238 237 238 237 238 239 240 239 238 235 233 232 232 234 238 242 244 247 249 252 254 255 256 257 258 258 256 253 244 252 267 274 277 277 273 269 270
260 261 261 261 261 261 262 261 261 261 261 261 261 260 259 258 257 255 254 253 252 250 248 246 245 245 245 245 245 245 246 245 241 238 238 240 242 243 243 242 239 239 241 241 242 242 242 241 239 241 244 244 242 240 240 238 238 241 241 241 240 239 238 237 238 241 244 246 248 248 251 255 256 257 257 259 261 259 254 249 253 265 275 281 281 274 266 268
261 261 261 261 262 262 261 261 261 261 260 260 260 259 258 257 256 255 254 253 252 251 250 247 246 245 245 245 244 244 247 247 244 240 239 240 242 243 244 244 242 241 241 242 243 243 243 243 242 243 244 246 246 244 244 242 240 242 242 241 241 242 241 240 242 243 244 247 249 249 249 253 256 257 257 259 261 259 258 260 261 268 282 288 284 275 270 275
262 262 262 262 262 262 262 262 261 261 260 260 259 259 258 257 256 255 255 254 253 252 251 249 248 246 246 246 244 243 246 248 246 242 241 242 242 242 243 244 245 244 243 243 244 244 245 245 245 246 245 246 248 248 247 245 242 242 243 242 241 243 243 241 243 244 244 245 248 249 249 251 255 257 258 260 261 260 263 266 266 270 283 287 278 274 279 284
263 263 263 263 263 263 263 262 262 262 261 260 260 259 259 257 256 256 255 254 254 253 252 251 250 248 248 248 245 243 245 249 249 245 242 241 242 242 242 243 245 245 245 244 244 246 246 246 247 247 247 247 248 249 249 248 245 243 243 242 241 242 242 241 242 243 242 243 246 248 249 250 254 257 259 261 261 261 264 265 265 265 267 270 268 269 277 280
264 263 263 263 263 263 263 262 262 262 261 261 260 260 260 258 257 257 256 255 254 254 253 252 251 251 250 250 247 244 245 248 249 247 244 242 241 243 243 243 244 244 246 246 246 246 246 247 247 247 249 249 249 250 251 250 247 243 243 243 241 241 241 241 242 242 242 242 244 246 247 248 251 255 257 258 261 260 263 266 268 268 260 257 265 273 282 286
264 264 263 263 262 262 262 262 262 262 261 261 260 260 260 259 258 257 257 256 255 254 254 253 253 252 251 252 250 247 245 247 249 248 247 244 242 242 244 244 244 244 245 247 247 246 246 247 247 248 249 249 249 249 248 248 247 245 245 246 244 243 241 242 243 243 244 245 246 246 248 249 249 252 255 257 260 258 259 263 263 264 261 257 267 279 290 297
266 265 264 264 263 263 262 262 261 261 261 261 260 259 259 259 258 257 257 257 255 255 254 253 254 253 252 252 252 249 247 247 248 249 248 247 245 244 245 245 245 245 245 246 247 246 246 246 248 248 247 246 247 247 248 249 250 249 250 249 248 245 242 243 245 245 246 248 249 248 249 249 249 250 252 254 253 249 253 256 255 257 255 256 269 281 288 291
267 266 265 265 264 263 263 262 262 261 261 261 260 259 258 259 259 257 257 258 257 255 255 253 254 254 253 253 253 251 249 248 248 248 248 248 247 246 245 246 246 246 245 245 245 246 246 247 247 246 245 246 247 247 250 252 252 252 252 252 250 246 243 243 244 244 245 247 247 247 246 246 248 248 248 251 247 243 248 251 253 255 251 254 268 276 279 281
266 266 265 264 263 263 262 262 262 261 261 260 260 260 259 258 258 258 257 258 258 256 256 254 253 254 254 252 252 252 250 249 248 249 249 248 248 248 247 247 246 247 246 245 245 246 247 247 246 245 245 246 247 248 250 252 251 251 250 250 248 246 243 241 242 242 243 245 245 245 245 244 245 245 245 247 243 242 248 249 252 257 253 251 260 267 270 274
266 265 265 264 263 262 261 261 260 260 260 259 259 259 259 258 258 257 256 257 258 257 256 255 254 254 254 252 251 252 251 250 249 248 249 249 249 249 248 247 246 246 246 245 246 246 246 246 245 244 245 246 247 248 248 249 249 249 248 248 247 245 243 241 241 241 241 244 244 244 246 245 244 244 244 246 245 244 249 250 252 257 255 247 251 261 267 268
266 265 265 264 262 261 261 260 259 259 258 258 257 257 257 257 256 256 256 255 256 257 255 254 254 252 253 254 251 250 251 250 248 248 250 251 250 249 249 248 247 247 247 247 246 245 244 244 245 245 246 246 247 247 247 248 248 247 247 247 246 245 244 243 242 242 241 243 244 243 243 244 243 242 242 244 245 245 247 249 250 254 256 249 248 260 265 257
266 265 264 264 263 262 261 260 259 258 257 257 257 256 255 255 255 254 254 253 253 256 255 252 252 251 251 252 251 250 250 251 250 248 249 251 251 250 248 248 248 247 248 247 246 245 244 245 246 246 247 246 246 247 247 247 246 245 245 245 245 245 245 244 243 243 243 243 245 245 245 246 245 243 242 242 244 244 244 246 248 249 254 254 250 257 259 250
265 265 264 264 263 262 261 260 259 259 257 256 255 255 255 254 254 253 252 251 249 252 254 252 250 249 249 249 251 250 249 249 250 249 247 248 249 249 248 247 248 248 248 247 246 244 245 246 246 246 246 246 245 245 245 245 244 244 244 244 244 245 245 244 244 244 245 245 246 247 248 248 248 246 244 243 243 243 242 243 245 245 248 253 252 251 254 249
266 265 264 264 263 263 262 261 260 259 258 256 255 254 254 253 253 252 251 250 247 247 251 252 249 248 248 248 248 248 247 248 249 249 247 246 248 249 248 247 247 247 246 246 246 245 246 247 246 246 246 245 245 245 244 244 244 244 244 244 245 245 245 245 245 245 246 246 246 247 247 249 250 250 249 247 244 242 241 239 241 242 240 245 249 248 249 250
266 266 265 264 263 263 262 261 260 259 258 257 255 254 253 253 253 253 251 250 248 246 247 250 250 248 247 247 247 246 246 246 247 248 246 244 245 247 248 247 246 246 245 245 246 246 246 246 244 243 244 243 243 243 242 242 242 242 243 244 245 246 246 246 246 245 246 247 247 247 247 249 250 251 252 250 246 243 241 238 237 238 237 237 241 245 247 248
267 267 266 265 263 263 262 261 260 259 258 257 256 255 254 253 252 252 252 250 249 248 246 247 249 248 246 246 246 246 244 243 245 246 245 242 242 244 245 245 244 243 243 244 244 243 243 243 242 241 242 242 241 241 241 241 241 241 242 244 245 245 246 246 245 245 246 247 248 248 246 246 247 247 248 249 247 243 240 238 234 233 234 234 234 239 241 242
269 268 267 266 265 264 263 262 261 261 260 259 258 256 255 254 253 252 252 251 250 249 246 245 246 247 246 245 245 245 245 243 243 245 245 242 242 244 244 244 243 242 243 243 243 242 243 244 243 242 242 241 240 240 241 242 242 242 243 244 245 245 245 245 245 245 245 246 248 249 246 244 243 243 244 245 246 244 238 236 233 230 232 233 232 235 238 237
271 270 270 269 268 267 266 265 264 263 263 262 261 259 258 257 256 254 253 251 250 249 246 244 244 245 247 246 245 244 245 244 243 244 245 244 242 243 243 243 243 243 244 244 243 243 244 244 243 243 242 242 241 241 242 242 242 243 243 244 244 244 244 244 244 244 244 245 248 248 245 243 241 241 241 240 242 242 238 235 232 229 229 230 229 232 237 238
273 272 272 271 270 270 269 268 266 265 264 264 263 262 261 260 258 257 255 252 250 249 247 244 243 244 246 248 247 245 245 246 245 244 245 244 242 242 243 243 244 244 244 245 245 245 245 245 245 243 241 241 240 241 242 242 242 243 243 243 243 243 243 243 243 243 244 244 244 244 243 241 239 238 238 235 236 238 237 235 232 229 228 228 226 226 233 237
275 274 273 272 272 271 270 269 268 267 266 264 263 263 261 260 260 258 257 254 251 249 248 246 244 243 245 247 247 246 245 246 246 246 245 245 243 243 243 243 243 243 243 244 244 243 244 244 244 241 239 239 239 239 240 240 242 242 241 241 241 241 241 242 242 243 242 240 241 242 243 242 239 238 239 235 234 236 236 233 230 227 227 228 226 223 228 234
276 276 275 274 274 273 272 272 271 269 268 266 264 263 261 259 258 257 256 254 253 251 250 250 247 244 243 244 245 246 244 243 244 244 244 243 243 242 241 241 241 241 240 240 239 238 238 239 238 237 237 238 238 237 238 239 240 240 239 239 240 240 240 240 241 241 240 240 241 243 245 245 242 242 243 241 238 238 237 234 229 226 226 227 226 224 224 228
277 277 276 276 276 275 275 274 273 272 271 269 266 263 261 259 257 255 253 252 252 252 252 251 248 245 243 242 243 244 244 242 242 242 241 241 241 241 241 240 240 240 239 239 238 238 238 238 238 237 236 237 237 236 236 237 238 238 238 237 238 239 239 239 239 240 240 241 242 244 245 244 242 242 244 243 240 239 239 236 231 226 224 224 226 225 222 223
279 279 278 277 277 276 276 275 275 274 273 271 268 265 262 259 256 253 251 251 253 254 254 252 249 246 243 241 241 241 242 241 240 240 239 239 238 239 239 239 238 238 238 239 239 239 239 239 239 237 235 233 233 232 232 234 236 238 237 237 239 240 239 238 239 240 241 242 244 246 245 243 242 241 243 243 241 239 238 236 232 227 223 222 224 225 222 221
283 282 281 280 279 277 276 275 274 273 272 271 269 266 263 260 256 254 253 253 255 254 253 252 250 246 242 239 238 238 238 238 237 237 236 236 236 237 237 237 236 236 236 236 237 237 238 238 237 237 235 234 233 232 231 232 234 236 236 237 238 239 237 237 239 240 242 243 244 244 243 242 241 241 241 241 239 236 235 236 233 228 224 219 221 226 225 222
287 285 284 282 280 279 277 276 274 273 271 270 268 265 262 260 257 255 254 253 251 249 249 249 249 246 242 238 237 237 237 237 237 236 235 234 234 235 235 236 236 235 234 234 233 233 234 234 234 235 235 234 233 233 232 230 231 234 235 235 236 237 236 236 238 241 242 243 243 242 242 242 240 240 239 238 236 232 229 232 232 229 225 219 218 224 225 224
289 288 286 284 282 281 279 278 276 274 271 269 266 264 260 258 256 254 252 249 247 244 242 242 244 244 241 238 236 237 239 239 239 238 237 235 234 233 233 234 234 234 233 232 231 231 231 231 232 232 232 232 231 232 232 231 232 234 235 235 237 238 238 237 238 240 241 241 240 240 241 241 238 237 237 236 234 229 225 228 229 228 224 219 218 222 224 223
292 290 288 286 284 282 281 279 278 275 273 270 267 263 260 256 254 252 250 247 245 242 239 237 238 239 239 239 237 236 236 238 239 239 237 235 233 231 231 231 232 232 231 230 230 230 230 230 231 231 231 230 230 231 232 232 233 234 235 237 239 239 238 236 236 238 239 240 241 241 242 241 237 235 235 234 233 229 224 224 226 224 221 218 217 220 221 220
294 292 290 287 286 284 282 280 279 277 275 272 269 264 261 257 252 250 248 244 241 240 238 236 235 235 236 236 236 235 234 235 236 237 236 236 234 232 230 230 230 231 232 232 233 233 231 231 231 232 232 231 231 232 232 231 232 233 233 236 238 238 237 236 236 238 241 242 243 243 243 242 239 238 238 237 235 230 225 222 222 220 220 218 216 218 219 217
297 295 292 289 287 285 283 281 279 277 275 273 271 267 263 259 254 249 245 242 238 236 235 234 233 233 233 233 233 233 232 232 234 235 235 235 235 233 231 231 230 230 230 230 231 232 233 232 232 232 233 233 232 232 231 228 228 229 229 230 233 233 233 233 233 236 239 241 242 242 242 242 240 238 236 234 231 228 225 222 219 218 218 217 216 217 218 217
300 298 295 293 290 286 284 281 279 277 275 272 270 267 264 260 256 250 244 240 236 234 232 231 230 230 231 231 231 231 230 229 230 232 233 234 234 231 230 231 232 231 230 228 227 228 229 229 229 230 231 231 229 228 227 225 224 225 225 225 227 228 229 229 228 229 233 235 237 238 238 238 236 233 231 228 226 225 223 221 218 216 217 216 215 215 217 217
304 301 298 296 294 291 287 284 281 278 275 272 269 266 263 260 257 252 246 239 235 231 230 229 228 228 229 229 229 230 229 228 227 228 231 233 234 232 230 229 230 230 230 230 228 228 227 226 225 226 228 229 227 226 225 224 222 222 224 224 225 227 228 227 224 223 225 229 232 234 235 234 231 231 230 227 225 224 223 221 219 218 217 215 214 214 214 217
305 304 302 299 297 294 291 287 284 280 277 274 270 266 262 258 255 252 247 240 234 230 227 226 226 226 227 227 227 228 228 227 227 226 227 230 232 231 229 227 227 227 228 229 229 229 229 228 225 225 226 227 226 226 226 226 224 222 224 225 225 226 228 228 225 222 223 228 231 234 236 232 228 230 231 227 225 224 222 222 221 220 220 217 215 214 213 216
309 307 306 304 302 298 294 290 286 283 279 275 271 267 262 257 254 251 247 240 234 230 226 225 224 224 225 225 224 225 225 226 226 226 225 227 229 228 226 225 225 225 225 226 229 230 231 230 228 226 226 227 227 227 228 229 226 223 224 225 225 225 227 227 225 221 222 228 232 235 238 232 225 229 229 224 223 221 220 221 221 221 222 221 218 216 215 216
314 312 311 309 307 304 300 295 290 285 281 276 272 268 263 257 252 249 246 240 234 229 226 223 223 223 224 223 223 224 224 224 225 225 224 225 226 225 224 224 223 223 223 223 226 228 229 229 228 227 227 228 226 224 225 226 224 221 220 223 224 225 225 225 225 221 220 225 229 233 237 232 225 227 226 220 220 218 218 221 221 220 221 221 219 217 215 215
318 316 315 313 310 308 304 298 293 288 284 279 274 269 264 258 252 248 245 240 234 229 226 223 221 222 223 222 221 222 223 223 224 224 224 224 224 223 223 223 221 221 221 222 223 225 226 227 226 225 226 228 227 224 224 225 225 221 219 220 223 224 223 222 224 221 219 221 225 230 235 233 227 225 221 217 218 218 219 221 221 220 219 219 220 219 217 215
321 319 317 315 312 310 307 301 295 292 288 283 277 272 265 259 253 248 244 240 234 229 225 223 221 221 222 222 220 220 222 223 223 223 223 222 221 220 221 222 220 218 219 220 221 222 223 224 223 222 223 225 226 224 224 225 225 223 221 220 221 224 223 220 221 221 218 218 222 226 231 232 229 224 216 214 217 218 218 220 220 220 219 218 220 221 219 217
325 322 320 318 315 313 310 303 298 296 292 287 282 277 270 261 253 248 244 239 234 229 225 223 221 220 221 221 220 219 221 222 221 222 223 221 217 217 219 221 219 217 217 219 219 220 221 222 222 222 221 222 223 222 223 225 225 223 222 220 220 222 223 219 219 220 218 216 220 224 228 230 230 227 218 213 218 219 217 220 222 221 220 219 221 222 221 218
328 325 324 321 317 317 314 306 303 303 297 291 286 280 274 267 257 249 244 240 234 229 225 223 220 220 220 220 219 219 220 221 221 220 222 220 215 214 217 219 219 217 216 218 218 217 219 220 221 221 222 222 222 221 221 222 224 223 223 222 220 221 222 221 219 219 218 216 218 222 225 226 229 229 223 217 220 221 218 221 226 224 221 221 222 223 221 218
331 328 327 324 321 321 318 310 309 309 301 295 291 283 276 271 262 251 244 239 235 229 225 223 221 219 219 219 218 218 219 221 220 219 221 219 213 211 214 217 218 217 216 217 217 215 216 219 219 220 221 221 222 221 220 221 223 223 223 222 221 220 222 223 221 219 218 218 218 220 223 225 227 230 228 222 220 221 220 222 227 227 223 223 224 224 221 217
334 332 331 328 326 326 323 316 315 314 306 300 296 287 279 273 265 254 246 240 235 230 225 223 221 219 219 219 218 218 218 219 219 219 220 218 212 209 212 215 217 217 216 215 215 214 215 217 219 220 220 220 221 221 221 221 221 222 222 221 220 219 219 222 221 219 218 218 220 220 222 224 226 227 229 226 222 222 224 224 226 228 227 226 227 227 224 219